DW5321 Paradera AW current weather conditions

sailwx.info

Wind from 090

Air temperature 25.6° C
Dewpoint 24.7° C

Last reported at 2017-Jun-29 07:55 UTC.
Time now 2017-Jun-29 09:03 UTC

Location: N 12°33' W 070°00'.
View on Google Maps.

See reports from other nearby stations

  
Tides and Currents Weather Stations Pressure Air Temp Water Temp Dewpoint Dewpoint Depression Visibility Wind Speed Wind Dir Waves Ship Positions
date/time (UTC)wind fromknots sea level pressurealtimeterstation pressurevisibilityair tempwater tempwave heightnotes
2017-Jun-29 07:55 090 25.6
2017-Jun-29 07:40 105 25.6
2017-Jun-29 07:25 108 25.6
2017-Jun-29 07:10 129 25.6
2017-Jun-29 06:55 060 26.1
2017-Jun-29 06:40 081 26.1
2017-Jun-29 06:25 099 26.1
2017-Jun-29 06:10 101 26.1
2017-Jun-29 05:55 068 26.1
2017-Jun-29 05:40 094 26.1
2017-Jun-29 05:25 075 26.1
2017-Jun-29 05:10 053 26.1
2017-Jun-29 04:55 071 26.1
2017-Jun-29 04:40 088 26.1
2017-Jun-29 04:25 056 26.7
2017-Jun-29 04:09 082 27.2
2017-Jun-29 03:55 099 27.2
2017-Jun-29 03:39 072 27.2
2017-Jun-29 03:24 060 27.2
2017-Jun-29 03:09 091 27.2
2017-Jun-29 02:54 096 27.8
2017-Jun-29 02:39 077 27.2
2017-Jun-29 02:24 079 27.8
2017-Jun-29 02:09 094 27.8
2017-Jun-29 01:54 064 27.8
2017-Jun-29 01:39 081 27.8
2017-Jun-29 01:24 089 27.8
2017-Jun-29 01:09 082 27.8
2017-Jun-29 00:54 129 27.8
2017-Jun-29 00:39 063 27.8
2017-Jun-29 00:24 102 27.8
2017-Jun-29 00:09 099 27.8
2017-Jun-28 23:54 077 27.8
2017-Jun-28 23:39 105 27.8
2017-Jun-28 23:24 072 27.8
2017-Jun-28 23:10 096 28.3
2017-Jun-28 22:54 074 28.3
2017-Jun-28 22:39 091 28.3
2017-Jun-28 22:24 117 28.3
2017-Jun-28 22:09 071 28.9
2017-Jun-28 21:54 052 28.9
2017-Jun-28 21:39 096 28.9
2017-Jun-28 21:24 070 29.4
2017-Jun-28 21:09 008 29.4
2017-Jun-28 20:54 089 29.4
2017-Jun-28 20:39 041 29.4
2017-Jun-28 20:24 070 30.0
2017-Jun-28 20:09 079 29.4
2017-Jun-28 19:54 039 30.0
2017-Jun-28 19:39 094 30.0
2017-Jun-28 19:24 085 30.6
2017-Jun-28 19:09 108 30.6
2017-Jun-28 18:54 057 30.0
2017-Jun-28 18:39 057 30.6
2017-Jun-28 18:24 089 30.0
2017-Jun-28 18:09 100 30.6
2017-Jun-28 17:54 073 30.6
2017-Jun-28 17:39 053 30.6
2017-Jun-28 17:24 096 30.6
2017-Jun-28 17:09 065 30.6
2017-Jun-28 16:54 060 30.6
2017-Jun-28 16:39 098 30.0
2017-Jun-28 16:24 082 30.6
2017-Jun-28 16:09 090 30.0
2017-Jun-28 15:54 094 30.0
2017-Jun-28 15:38 054 30.0
2017-Jun-28 15:23 048 30.0
2017-Jun-28 15:08 102 30.0
2017-Jun-28 14:53 075 30.0
2017-Jun-28 14:37 077 30.0
2017-Jun-28 14:22 070 29.4
2017-Jun-28 14:07 080 29.4
2017-Jun-28 13:52 086 29.4
2017-Jun-28 13:37 053 29.4
2017-Jun-28 13:22 077 28.9
2017-Jun-28 13:07 077 28.9
2017-Jun-28 12:52 065 28.9
2017-Jun-28 12:37 090 28.9
2017-Jun-28 12:22 097 28.3
2017-Jun-28 12:07 081 27.8
2017-Jun-28 11:50 034 27.8
2017-Jun-28 11:35 103 27.8
2017-Jun-28 11:20 084 27.2
2017-Jun-28 11:05 110 27.2
2017-Jun-28 10:49 096 26.7
2017-Jun-28 10:34 114 26.7
2017-Jun-28 10:19 087 26.7
2017-Jun-28 10:04 071 26.7
2017-Jun-28 09:49 009 26.7
2017-Jun-28 09:33 117 26.7
2017-Jun-28 09:18 090 26.7
2017-Jun-28 09:03 077 26.7
2017-Jun-28 08:48 075 26.7
2017-Jun-28 08:33 096 26.7
2017-Jun-28 08:18 098 26.7
2017-Jun-28 08:03 084 26.7
2017-Jun-28 07:48 099 26.7
2017-Jun-28 07:34 099 26.7
2017-Jun-28 07:18 131 26.7
2017-Jun-28 07:03 089 26.7
2017-Jun-28 06:48 113 26.7
2017-Jun-28 06:33 100 26.7
2017-Jun-28 06:18 101 26.7
2017-Jun-28 06:03 082 26.7
2017-Jun-28 05:48 090 26.7
2017-Jun-28 05:33 081 26.7
2017-Jun-28 05:17 058 27.2
2017-Jun-28 05:02 088 27.2
2017-Jun-28 04:47 034 27.2
2017-Jun-28 04:33 105 27.2
2017-Jun-28 04:17 089 27.2
2017-Jun-28 04:02 114 27.2
2017-Jun-28 03:47 094 27.2
2017-Jun-28 03:32 094 27.2
2017-Jun-28 03:18 086 27.2
2017-Jun-28 03:02 079 27.2
2017-Jun-28 02:47 127 27.2
2017-Jun-28 02:32 096 27.2
2017-Jun-28 02:17 110 27.2
2017-Jun-28 02:02 077 27.2
2017-Jun-28 01:47 060 27.2
2017-Jun-28 01:32 129 27.2
2017-Jun-28 01:17 089 27.2
2017-Jun-28 01:00 092 27.2
2017-Jun-28 00:45 122 27.2
2017-Jun-28 00:30 091 27.2
2017-Jun-28 00:15 084 27.2
2017-Jun-28 00:00 096 27.2
2017-Jun-27 23:44 095 27.8
2017-Jun-27 23:29 070 27.8
2017-Jun-27 23:14 067 27.8
2017-Jun-27 23:00 110 27.8
2017-Jun-27 22:44 113 27.8
2017-Jun-27 22:29 065 28.3
2017-Jun-27 22:14 098 28.3
2017-Jun-27 21:59 096 28.3
2017-Jun-27 21:44 068 28.9
2017-Jun-27 21:28 070 28.9
2017-Jun-27 21:14 068 28.9
2017-Jun-27 20:59 071 29.4
2017-Jun-27 20:44 100 29.4
2017-Jun-27 20:29 084 29.4
2017-Jun-27 20:14 088 29.4
2017-Jun-27 19:59 031 29.4
2017-Jun-27 19:43 099 30.0
2017-Jun-27 19:28 077 29.4
2017-Jun-27 19:13 073 29.4
2017-Jun-27 18:58 105 29.4
2017-Jun-27 18:43 070 30.0
2017-Jun-27 18:28 129 30.6
2017-Jun-27 18:13 113 30.6
2017-Jun-27 17:59 083 30.6
2017-Jun-27 17:43 113 30.6
2017-Jun-27 17:28 117 30.6
2017-Jun-27 17:13 102 30.6
2017-Jun-27 16:58 107 30.6
2017-Jun-27 16:43 077 30.6
2017-Jun-27 16:28 110 30.6
2017-Jun-27 16:13 081 30.6
2017-Jun-27 15:58 113 30.6
2017-Jun-27 15:43 129 30.6
2017-Jun-27 15:29 077 30.6
2017-Jun-27 15:13 077 30.0
2017-Jun-27 14:58 092 30.6
2017-Jun-27 14:43 110 30.0
2017-Jun-27 14:28 110 29.4
2017-Jun-27 14:13 110 29.4
2017-Jun-27 13:58 082 28.9
2017-Jun-27 13:43 131 28.3
2017-Jun-27 13:28 110 28.3
2017-Jun-27 13:13 108 28.3
2017-Jun-27 12:58 087 28.3
2017-Jun-27 12:42 136 28.3
2017-Jun-27 12:27 088 27.8
2017-Jun-27 12:12 125 27.8
2017-Jun-27 11:57 113 27.8
2017-Jun-27 11:42 113 27.2
2017-Jun-27 11:27 110 27.2
2017-Jun-27 11:12 068 27.2
2017-Jun-27 10:57 094 27.2
2017-Jun-27 10:42 101 27.2
2017-Jun-27 10:27 063 27.2
2017-Jun-27 10:12 084 27.2
2017-Jun-27 09:57 100 27.2
2017-Jun-27 09:42 129 27.2
2017-Jun-27 09:27 101 27.2
2017-Jun-27 09:12 063 27.2